Temperature
-2 -2 -2 -2 -2 -3 -2 -2 -1 -1 -2 -1 -3 -4 -4 -4 -4 -4 -4 -4 -4 -4 -4 -4 -4 -4 -4 -4 -4 -4 -4 -5 -5 -5 -5 -5 -5 -5 -5 -5 -5 -5 -5 -4
-3 -3 -3 -3 -2 -3 -2 -2 -3 -2 -2 -4 -4 -4 -5 -4 -5 -5 -4 -4 -4 -4 -5 -5 -5 -5 -5 -5 -5 -5 -5 -5 -5 -6 -6 -6 -6 -6 -6 -6 -5 -5 -5 -5
-3 -4 -3 -2 -3 -3 -4 -5 -4 -3 -3 -5 -6 -6 -6 -5 -5 -5 -5 -5 -5 -5 -5 -5 -5 -5 -5 -5 -6 -6 -6 -6 -6 -6 -6 -6 -6 -6 -6 -6 -6 -6 -6 -6
-4 -4 -2 -1 -5 -4 -4 -5 -6 -6 -6 -6 -6 -6 -5 -5 -5 -5 -5 -5 -5 -5 -5 -6 -6 -6 -6 -6 -6 -7 -7 -7 -7 -7 -7 -7 -7 -7 -7 -7 -7 -7 -7 -7
-4 -4 -3 -3 -5 -6 -5 -5 -7 -7 -7 -7 -7 -7 -6 -5 -5 -5 -6 -6 -6 -6 -6 -6 -6 -6 -7 -7 -7 -7 -7 -7 -7 -8 -8 -8 -8 -8 -8 -8 -8 -8 -8 -7
-4 -3 -3 -3 -6 -7 -5 -5 -7 -7 -8 -8 -8 -7 -6 -5 -6 -6 -6 -6 -6 -6 -6 -7 -7 -7 -7 -8 -8 -8 -8 -8 -8 -9 -8 -8 -9 -9 -9 -9 -8 -8 -8 -8
-5 -4 -4 -6 -8 -6 -4 -4 -6 -7 -7 -8 -8 -7 -6 -6 -6 -6 -7 -7 -7 -7 -7 -7 -8 -8 -8 -8 -8 -9 -9 -9 -9 -9 -9 -9 -9 -9 -9 -9 -9 -9 -9 -9
-6 -5 -4 -8 -8 -7 -6 -6 -6 -7 -6 -7 -7 -7 -7 -7 -7 -7 -7 -7 -8 -8 -8 -8 -9 -9 -9 -9 -9 -10 -10 -10 -10 -10 -10 -10 -10 -10 -10 -10 -10 -10 -10 -9
-6 -5 -7 -8 -7 -7 -6 -7 -7 -7 -7 -7 -7 -7 -7 -7 -8 -8 -8 -8 -9 -9 -9 -9 -10 -10 -10 -10 -10 -10 -10 -10 -10 -10 -10 -10 -11 -11 -10 -10 -10 -10 -10 -10
-9 -8 -8 -8 -7 -7 -7 -7 -7 -7 -7 -7 -8 -8 -8 -8 -8 -9 -9 -9 -10 -10 -10 -10 -10 -11 -11 -11 -11 -11 -11 -11 -11 -11 -11 -11 -11 -11 -11 -11 -11 -11 -11 -11
-9 -9 -9 -8 -7 -7 -7 -7 -7 -7 -8 -8 -8 -8 -9 -9 -9 -10 -10 -10 -10 -11 -11 -11 -11 -11 -11 -12 -12 -11 -11 -12 -12 -11 -11 -11 -11 -11 -11 -11 -12 -12 -12 -12
-8 -8 -9 -8 -7 -7 -7 -7 -8 -8 -8 -8 -9 -9 -9 -10 -10 -10 -11 -11 -11 -11 -11 -12 -12 -12 -12 -12 -12 -12 -12 -12 -12 -12 -12 -12 -12 -12 -12 -12 -12 -12 -12 -12
-8 -8 -8 -8 -8 -8 -8 -8 -8 -9 -9 -9 -9 -9 -10 -10 -11 -11 -11 -11 -12 -12 -12 -12 -12 -12 -13 -13 -13 -13 -13 -13 -13 -13 -13 -13 -13 -13 -12 -12 -12 -12 -12 -12
-8 -8 -9 -9 -9 -9 -9 -9 -9 -9 -10 -10 -10 -10 -11 -11 -11 -11 -12 -12 -12 -13 -13 -13 -13 -13 -13 -13 -13 -13 -13 -14 -14 -14 -14 -13 -13 -13 -13 -13 -13 -12 -12 -12
-9 -9 -9 -9 -9 -9 -10 -10 -10 -10 -11 -11 -11 -11 -11 -11 -12 -12 -13 -13 -13 -13 -13 -13 -13 -14 -14 -14 -14 -14 -14 -14 -14 -14 -14 -14 -14 -14 -14 -14 -13 -13 -13 -13
-9 -9 -10 -10 -10 -10 -10 -11 -11 -11 -11 -11 -12 -12 -12 -12 -13 -13 -13 -14 -14 -14 -14 -14 -14 -14 -14 -14 -14 -14 -14 -14 -14 -14 -14 -14 -14 -14 -14 -14 -14 -14 -14 -14
-10 -10 -10 -10 -10 -11 -11 -11 -11 -12 -12 -12 -12 -13 -13 -13 -13 -13 -14 -14 -14 -14 -14 -14 -15 -15 -15 -15 -15 -15 -15 -15 -15 -15 -15 -15 -15 -15 -15 -15 -15 -15 -14 -14
-10 -10 -10 -10 -11 -11 -11 -12 -12 -12 -12 -13 -13 -13 -13 -13 -14 -14 -14 -14 -15 -15 -15 -15 -15 -15 -15 -15 -15 -15 -15 -15 -15 -15 -15 -15 -15 -15 -15 -15 -15 -15 -15 -15
-10 -10 -11 -11 -11 -12 -12 -12 -12 -13 -13 -13 -13 -14 -14 -14 -14 -15 -15 -15 -15 -15 -15 -15 -15 -15 -15 -15 -15 -15 -15 -16 -16 -16 -16 -16 -16 -16 -16 -16 -16 -16 -16 -15
-11 -11 -11 -12 -12 -12 -12 -13 -13 -13 -13 -14 -14 -14 -14 -15 -15 -15 -15 -15 -15 -16 -16 -16 -16 -16 -16 -16 -16 -16 -16 -16 -16 -16 -16 -16 -16 -16 -16 -16 -16 -16 -16 -16
-12 -12 -12 -12 -12 -13 -13 -13 -13 -14 -14 -14 -15 -15 -15 -15 -15 -16 -16 -16 -16 -16 -16 -16 -16 -16 -16 -16 -16 -16 -17 -17 -17 -17 -17 -17 -17 -17 -17 -17 -17 -17 -16 -16
-12 -12 -12 -13 -13 -13 -14 -14 -14 -14 -15 -15 -15 -15 -16 -16 -16 -16 -16 -16 -16 -16 -17 -16 -16 -17 -17 -17 -17 -17 -17 -17 -17 -17 -17 -17 -17 -17 -17 -17 -17 -17 -17 -17
-13 -13 -13 -13 -14 -14 -14 -14 -15 -15 -15 -15 -15 -16 -16 -16 -16 -16 -16 -17 -17 -17 -17 -17 -17 -17 -18 -17 -17 -17 -17 -17 -17 -18 -18 -18 -18 -18 -18 -18 -18 -17 -17 -17
-13 -14 -14 -14 -14 -14 -14 -15 -15 -15 -15 -16 -16 -16 -16 -16 -16 -17 -17 -17 -17 -17 -17 -17 -17 -18 -18 -18 -18 -18 -18 -18 -18 -18 -18 -18 -18 -18 -18 -18 -18 -18 -17 -17
-14 -14 -14 -14 -14 -15 -15 -15 -15 -16 -16 -16 -16 -17 -17 -17 -17 -17 -17 -17 -17 -17 -17 -18 -18 -18 -18 -18 -18 -18 -18 -18 -18 -18 -18 -18 -18 -18 -18 -18 -18 -18 -18 -18
-14 -14 -15 -15 -15 -15 -15 -15 -16 -16 -16 -16 -16 -17 -17 -17 -17 -17 -17 -17 -17 -18 -18 -18 -18 -18 -18 -18 -18 -18 -18 -18 -18 -18 -18 -18 -18 -18 -18 -18 -18 -18 -18 -18
-15 -15 -15 -15 -15 -15 -16 -16 -16 -16 -17 -17 -17 -17 -17 -17 -17 -17 -17 -18 -18 -18 -18 -18 -18 -18 -18 -18 -18 -18 -18 -18 -18 -18 -18 -18 -18 -18 -18 -18 -18 -18 -18 -18
Wind_Speed
7 5 4 7 8 9 11 11 11 10 11 11 7 5 5 4 3 3 3 3 3 3 2 2 2 2 2 2 1 1 1 1 2 2 3 3 3 3 3 4 4 4 4 4
4 3 5 8 10 12 13 10 11 11 13 9 6 3 3 4 4 5 4 4 3 3 2 2 2 2 2 2 2 1 1 1 2 3 3 3 3 3 4 4 4 4 4 4
4 2 3 9 10 11 7 7 8 12 11 4 4 4 5 5 5 5 5 4 4 3 3 3 3 2 2 2 2 1 1 2 2 3 3 3 4 4 4 4 4 4 5 5
2 1 9 7 2 6 8 7 8 7 6 5 5 4 4 3 4 4 4 4 3 3 3 2 1 1 1 1 1 2 2 2 3 3 4 4 4 4 4 4 4 4 5 5
3 5 9 6 3 4 6 6 6 8 7 5 2 2 3 2 3 4 4 3 3 2 2 1 1 1 1 1 1 2 2 3 3 3 4 4 4 5 4 4 5 5 5 5
4 5 8 6 2 2 3 5 3 5 6 3 1 2 4 1 1 2 1 1 1 1 1 1 1 0 1 2 2 3 3 4 4 4 4 5 5 5 4 4 5 5 6 5
7 8 8 4 2 3 5 5 1 3 4 3 4 5 3 1 1 1 1 1 1 1 1 1 1 0 1 2 3 4 4 4 4 4 5 5 5 4 4 4 4 5 6 6
5 6 9 2 5 6 5 1 1 2 3 3 4 3 3 2 1 1 1 1 1 1 2 2 1 1 2 3 4 3 3 3 4 4 4 4 4 4 4 4 4 5 5 6
8 7 2 4 5 3 1 2 2 2 2 3 3 4 4 2 2 1 1 1 1 1 2 2 1 1 3 4 3 3 3 3 4 4 4 4 4 4 4 3 3 4 4 5
4 6 5 4 4 3 3 4 3 2 2 2 4 5 4 3 2 2 2 1 1 1 2 3 2 2 2 3 3 2 3 4 4 4 4 4 3 4 4 4 4 4 5 5
5 6 4 4 5 5 3 3 3 2 3 3 4 4 4 3 3 2 2 1 1 1 2 3 3 3 3 2 2 2 3 3 4 3 4 4 4 4 5 5 6 6 5 5
7 5 5 5 3 3 3 4 4 3 3 2 3 4 3 3 2 2 2 1 1 2 2 3 3 3 3 2 2 2 3 3 3 3 3 3 4 5 8 8 10 10 10 8
5 3 4 4 3 2 3 3 3 3 3 3 2 2 2 2 2 1 1 1 2 2 2 3 3 4 4 3 2 2 3 3 3 3 3 4 4 4 6 7 9 9 9 10
4 2 3 3 4 2 1 1 1 1 1 1 1 1 1 1 1 1 2 2 2 2 2 2 3 4 4 3 2 3 3 4 4 3 3 4 4 4 4 5 6 6 8 10
4 4 4 3 1 1 1 1 1 2 1 1 1 0 1 1 2 2 2 1 1 2 2 2 3 4 3 2 2 3 3 3 3 3 3 3 4 4 4 4 5 5 5 7
2 1 1 1 2 2 1 0 1 2 2 2 2 2 1 1 1 1 1 1 1 2 3 3 4 4 3 2 3 3 3 6 5 3 3 3 3 3 4 4 5 5 5 5
2 2 3 3 3 3 2 2 2 3 2 2 3 2 1 1 1 2 2 2 2 3 4 4 4 4 3 3 2 3 3 4 6 4 3 3 3 3 4 4 4 5 5 7
4 4 4 4 4 4 3 2 2 2 2 2 1 0 0 1 2 3 3 2 3 4 4 4 4 4 3 3 2 2 2 2 2 3 3 3 3 3 4 4 5 5 6 6
2 2 2 2 2 2 2 2 2 2 1 1 1 1 1 2 2 2 2 2 2 4 5 4 6 4 3 4 4 2 2 3 3 3 3 5 5 4 4 4 5 5 5 5
1 1 1 1 1 1 2 2 1 1 1 1 0 1 1 2 2 1 2 3 3 4 5 5 4 3 4 4 5 2 2 3 3 3 3 3 4 4 4 5 5 5 5 5
1 1 1 1 0 1 1 1 1 1 1 1 1 2 2 2 2 1 1 3 4 4 4 6 4 3 3 4 5 2 2 3 3 3 4 4 4 5 5 5 6 6 6 6
1 1 1 1 0 1 1 0 1 1 1 1 1 1 1 2 2 2 3 4 4 6 4 3 3 6 6 5 2 2 2 3 3 3 4 4 5 5 5 6 6 6 6 6
2 2 2 1 1 1 1 0 1 1 1 2 2 2 3 3 2 2 4 3 3 6 5 3 6 8 8 3 1 2 3 3 4 4 4 5 5 5 6 7 7 7 7 7
1 2 1 1 2 1 0 1 1 1 1 2 3 3 3 2 3 3 3 6 7 8 4 6 9 9 7 2 2 3 4 4 4 5 5 5 5 5 6 6 7 7 7 8
1 1 1 2 1 2 2 1 1 1 1 2 2 3 2 3 3 3 3 4 7 7 4 6 9 8 5 3 3 4 4 5 5 5 5 5 5 6 6 7 7 7 7 7
1 1 2 2 2 2 1 1 1 1 1 2 3 2 2 2 3 3 3 3 5 7 5 4 4 6 4 4 4 5 5 6 6 5 5 6 7 7 7 7 8 8 8 8
1 1 1 1 1 1 1 1 2 2 2 3 4 3 3 3 3 3 3 3 4 4 4 4 4 4 4 5 5 5 5 5 5 6 6 6 6 7 7 8 8 8 9 9
Wind_Direction
253 261 223 232 230 205 211 217 226 244 246 262 264 254 249 245 242 242 243 254 264 272 283 304 319 326 337 335 342 5 9 337 306 308 309 311 312 314 316 316 312 306 305 303
272 254 246 257 242 225 228 232 238 256 265 266 279 271 258 255 246 249 251 257 262 270 277 282 287 297 317 324 328 350 338 311 317 319 315 313 310 312 316 314 310 308 301 298
261 296 316 262 228 208 211 211 206 234 249 265 275 265 255 253 248 248 255 261 262 263 260 264 267 276 275 294 325 333 318 313 318 317 314 308 309 314 311 306 302 301 299 295
246 33 245 249 172 188 207 231 220 235 257 262 256 268 271 248 237 253 264 269 269 266 272 279 270 284 300 314 325 318 309 307 311 313 310 312 310 304 301 297 296 295 295 292
193 240 270 279 218 173 195 253 224 228 253 269 290 322 292 257 235 248 256 262 258 252 259 257 250 272 311 309 310 300 293 295 298 299 301 304 301 295 293 294 292 291 290 289
189 220 247 251 213 167 122 276 236 208 236 256 117 261 269 308 313 294 314 323 312 323 298 245 267 258 268 277 284 281 284 288 292 291 289 288 286 287 288 287 287 293 296 292
216 235 259 261 214 144 177 252 243 189 213 200 206 233 268 312 336 331 328 332 347 341 288 270 263 223 283 283 274 280 289 293 294 291 285 280 283 286 288 288 291 291 292 294
189 221 251 186 140 181 218 272 179 199 212 220 243 271 284 289 298 319 335 334 336 328 315 318 297 252 283 285 292 296 293 293 294 293 290 290 288 290 287 281 285 288 293 300
200 219 249 175 195 225 218 236 245 231 247 231 258 273 285 288 285 289 288 304 317 297 311 319 308 263 272 293 306 306 302 299 299 300 298 297 290 289 289 281 279 287 289 294
248 258 251 234 241 254 227 233 248 238 244 232 256 271 281 282 280 286 285 289 296 285 296 305 309 304 285 298 305 301 298 301 302 304 306 304 294 284 282 274 275 280 283 288
255 269 289 262 241 247 254 252 255 264 248 242 247 263 262 265 264 262 273 277 246 246 266 286 304 303 301 302 303 301 301 301 306 306 303 302 298 283 282 269 266 272 273 275
242 239 225 256 261 245 235 248 246 252 271 269 241 251 254 255 251 242 250 246 251 263 275 287 298 300 303 302 290 287 302 308 307 306 304 303 305 308 304 298 296 289 284 283
243 255 237 263 290 281 249 260 263 252 251 271 270 242 240 252 260 239 243 244 247 261 274 287 297 298 301 299 290 275 279 291 294 298 301 301 302 306 313 320 318 313 307 303
244 224 264 265 270 293 292 299 311 312 296 278 275 265 221 245 283 255 260 264 265 268 277 280 289 292 294 290 283 278 279 288 293 286 290 293 293 293 296 304 314 316 318 318
252 224 231 261 298 332 347 15 10 330 337 333 327 278 229 245 264 269 276 295 313 299 291 289 290 293 299 287 280 275 279 284 283 285 287 290 294 296 297 299 302 308 315 323
254 210 206 236 254 273 303 296 272 288 300 303 302 290 275 265 281 295 296 275 266 293 293 291 286 289 292 285 283 280 277 293 302 294 291 295 297 298 299 300 302 306 309 312
189 236 233 243 252 261 253 245 247 269 281 279 282 299 342 15 337 310 304 295 274 278 282 281 283 291 287 277 273 281 282 293 302 304 300 297 296 294 295 298 300 301 302 308
216 226 220 220 233 244 257 256 264 277 276 273 286 331 257 255 274 292 306 321 321 310 297 286 287 292 287 282 276 275 279 282 290 291 296 296 298 294 294 294 296 299 303 309
215 217 223 223 224 224 239 250 260 267 276 259 233 257 266 265 271 292 313 321 308 303 308 306 312 320 305 297 302 278 279 287 295 297 297 300 305 303 298 296 297 298 302 306
207 212 214 220 206 207 230 244 243 259 264 204 197 269 288 287 285 291 296 285 274 273 288 301 307 301 292 290 303 277 274 281 288 294 296 294 295 297 297 296 297 297 298 299
218 212 186 184 252 259 226 208 193 231 247 184 200 237 260 282 287 278 285 296 299 290 290 302 310 297 292 293 303 289 278 279 281 283 286 288 290 292 294 296 296 296 296 296
223 209 210 195 168 306 302 177 182 199 209 237 246 245 259 284 294 289 267 260 282 303 312 297 296 297 304 306 293 279 277 280 282 282 282 284 286 289 291 292 292 292 293 293
227 209 201 202 199 231 337 284 208 201 218 239 250 247 245 254 256 265 291 284 280 298 313 294 299 307 314 321 292 276 278 280 281 280 280 281 281 282 284 287 288 289 290 290
207 193 194 168 126 121 276 285 265 243 241 257 255 245 239 260 277 256 254 290 307 308 305 299 308 313 322 325 295 286 282 281 279 278 278 279 279 280 281 283 286 287 286 287
187 177 162 154 180 225 240 258 289 279 273 283 281 269 251 240 250 272 276 279 296 308 305 303 309 316 325 308 297 290 286 280 280 281 278 281 281 281 282 281 282 283 284 284
180 198 212 215 218 226 225 222 246 268 280 292 296 288 279 269 259 268 281 285 286 301 307 302 304 308 307 299 293 290 287 291 295 292 285 284 283 282 283 283 283 282 282 281
174 192 206 253 250 226 219 223 240 260 265 269 282 285 281 282 281 281 285 290 294 295 296 299 299 295 294 293 293 292 291 289 286 285 285 283 282 281 282 281 281 281 281 281
Height
1495 1494 1496 1495 1495 1499 1498 1493 1491 1484 1484 1476 1477 1478 1478 1478 1478 1478 1478 1479 1478 1478 1478 1478 1478 1477 1477 1477 1477 1477 1477 1477 1477 1477 1477 1477 1477 1476 1476 1475 1475 1474 1473 1473
1496 1494 1495 1492 1488 1489 1489 1488 1486 1484 1479 1475 1475 1475 1476 1476 1476 1476 1475 1476 1476 1475 1475 1475 1474 1474 1474 1474 1474 1474 1473 1473 1473 1473 1473 1473 1473 1472 1472 1471 1470 1470 1469 1468
1494 1496 1491 1486 1479 1481 1483 1482 1482 1478 1473 1473 1474 1473 1473 1473 1473 1473 1473 1473 1473 1472 1472 1472 1471 1471 1471 1471 1470 1470 1470 1470 1470 1470 1469 1469 1469 1468 1468 1467 1466 1465 1464 1463
1496 1496 1489 1469 1473 1473 1475 1475 1476 1473 1471 1471 1471 1471 1471 1471 1471 1470 1470 1470 1470 1469 1469 1469 1469 1468 1468 1468 1467 1467 1467 1467 1467 1466 1466 1465 1465 1464 1464 1463 1462 1461 1460 1459
1495 1491 1479 1473 1472 1473 1474 1472 1471 1471 1470 1469 1469 1469 1468 1468 1468 1468 1468 1468 1467 1467 1466 1466 1465 1465 1464 1464 1464 1464 1463 1463 1463 1462 1462 1461 1460 1460 1460 1459 1457 1456 1455 1454
1491 1488 1478 1467 1470 1469 1472 1471 1466 1466 1467 1468 1468 1470 1467 1466 1465 1465 1465 1465 1464 1463 1463 1462 1462 1461 1461 1460 1460 1460 1460 1460 1459 1459 1458 1457 1457 1456 1455 1454 1453 1452 1451 1450
1486 1482 1471 1470 1468 1469 1472 1465 1464 1463 1464 1466 1466 1466 1464 1463 1463 1463 1462 1461 1461 1460 1459 1459 1459 1458 1457 1457 1457 1457 1456 1456 1456 1455 1454 1453 1453 1452 1451 1450 1449 1447 1446 1445
1483 1481 1471 1468 1468 1468 1464 1462 1461 1461 1462 1462 1462 1462 1461 1461 1461 1460 1459 1459 1458 1457 1457 1456 1456 1455 1454 1454 1454 1453 1453 1452 1452 1451 1450 1449 1448 1447 1447 1446 1444 1443 1442 1440
1471 1467 1464 1463 1462 1461 1461 1461 1460 1460 1460 1460 1460 1459 1459 1458 1458 1457 1457 1456 1455 1454 1454 1454 1453 1453 1452 1451 1450 1450 1449 1449 1448 1447 1446 1446 1444 1443 1442 1441 1440 1439 1438 1436
1468 1463 1461 1460 1459 1459 1459 1459 1458 1458 1458 1458 1457 1456 1456 1455 1455 1454 1453 1453 1452 1452 1451 1451 1450 1450 1449 1448 1447 1447 1446 1445 1444 1443 1442 1442 1441 1440 1439 1438 1437 1435 1434 1433
1464 1460 1458 1456 1456 1456 1456 1456 1456 1456 1455 1455 1454 1453 1453 1452 1451 1451 1450 1450 1449 1449 1448 1448 1447 1447 1446 1445 1444 1443 1443 1442 1441 1440 1439 1438 1437 1436 1435 1434 1434 1432 1431 1430
1457 1454 1455 1453 1452 1453 1453 1452 1452 1452 1451 1451 1451 1450 1449 1449 1448 1448 1447 1447 1446 1446 1446 1445 1444 1444 1443 1442 1441 1440 1439 1438 1437 1436 1435 1434 1433 1432 1431 1431 1429 1428 1427 1426
1451 1450 1451 1450 1450 1450 1450 1449 1449 1449 1448 1447 1447 1447 1446 1445 1445 1445 1444 1444 1443 1443 1442 1442 1441 1441 1440 1439 1438 1437 1436 1435 1434 1433 1432 1431 1429 1428 1426 1425 1425 1424 1423 1422
1448 1448 1448 1447 1447 1448 1447 1447 1446 1445 1444 1444 1444 1443 1442 1442 1442 1441 1441 1441 1440 1440 1439 1439 1438 1438 1437 1436 1435 1434 1433 1432 1431 1430 1429 1428 1426 1425 1423 1421 1420 1419 1419 1418
1445 1446 1445 1445 1445 1444 1444 1444 1443 1442 1441 1441 1440 1440 1439 1439 1438 1438 1438 1438 1437 1437 1437 1436 1435 1435 1434 1433 1432 1431 1430 1429 1428 1427 1426 1425 1423 1422 1420 1419 1417 1415 1414 1413
1442 1443 1442 1442 1442 1441 1441 1440 1440 1439 1439 1438 1438 1437 1436 1436 1436 1435 1435 1435 1434 1434 1434 1433 1432 1432 1431 1430 1429 1428 1427 1426 1425 1424 1423 1421 1420 1419 1417 1415 1414 1413 1411 1410
1439 1439 1439 1439 1438 1438 1438 1438 1437 1437 1436 1436 1435 1435 1434 1433 1433 1433 1433 1432 1432 1431 1431 1430 1430 1429 1428 1427 1426 1425 1424 1423 1422 1421 1420 1418 1417 1415 1414 1413 1411 1410 1408 1407
1436 1436 1436 1436 1436 1435 1435 1435 1434 1434 1433 1433 1433 1432 1431 1431 1430 1430 1430 1430 1429 1429 1429 1428 1427 1426 1425 1424 1423 1422 1421 1420 1419 1418 1416 1415 1414 1412 1411 1409 1408 1406 1405 1403
1433 1433 1433 1433 1433 1433 1432 1432 1432 1431 1431 1430 1430 1429 1429 1428 1428 1428 1427 1427 1426 1425 1425 1425 1424 1423 1422 1421 1421 1419 1418 1417 1416 1415 1413 1412 1411 1409 1408 1406 1405 1403 1401 1399
1430 1430 1430 1430 1430 1430 1430 1429 1429 1429 1428 1428 1427 1427 1426 1426 1425 1425 1425 1424 1424 1423 1422 1422 1421 1420 1419 1418 1417 1416 1415 1414 1413 1411 1410 1409 1407 1406 1404 1403 1401 1399 1398 1396
1427 1427 1428 1428 1428 1428 1427 1427 1426 1426 1426 1425 1425 1424 1424 1423 1423 1423 1422 1421 1422 1421 1420 1419 1418 1417 1416 1415 1414 1413 1412 1411 1409 1408 1407 1405 1404 1402 1401 1399 1397 1396 1394 1392
1425 1425 1426 1426 1426 1425 1425 1425 1424 1424 1423 1423 1423 1422 1421 1421 1421 1420 1420 1420 1419 1418 1417 1416 1415 1415 1414 1413 1411 1410 1409 1407 1406 1405 1403 1402 1400 1399 1397 1395 1394 1392 1390 1388
1424 1424 1424 1424 1424 1423 1423 1423 1423 1422 1422 1421 1421 1420 1419 1419 1419 1418 1417 1417 1416 1415 1414 1413 1413 1412 1411 1409 1408 1407 1405 1404 1402 1401 1400 1398 1397 1395 1393 1391 1389 1387 1386 1384
1422 1422 1422 1422 1422 1422 1421 1421 1421 1420 1420 1420 1419 1419 1418 1417 1416 1416 1415 1414 1414 1413 1411 1410 1410 1409 1407 1406 1404 1403 1401 1400 1399 1397 1396 1394 1392 1391 1389 1387 1385 1383 1381 1379
1420 1420 1420 1420 1420 1420 1420 1419 1419 1418 1418 1417 1417 1416 1416 1415 1414 1413 1413 1412 1411 1409 1408 1407 1406 1405 1404 1402 1401 1399 1398 1396 1395 1393 1391 1390 1388 1386 1384 1382 1380 1378 1376 1374
1419 1419 1419 1419 1419 1418 1418 1417 1417 1416 1416 1415 1414 1414 1413 1413 1412 1411 1410 1409 1408 1406 1405 1404 1403 1401 1400 1399 1397 1395 1394 1392 1391 1389 1387 1385 1383 1382 1380 1378 1376 1374 1372 1370
1417 1417 1417 1417 1417 1416 1416 1415 1415 1414 1414 1413 1412 1412 1411 1410 1409 1408 1407 1406 1404 1403 1402 1400 1399 1398 1396 1395 1393 1391 1390 1388 1386 1384 1382 1380 1379 1377 1375 1373 1371 1369 1366 1364